Location: New Canada
(47.1017°N, 68.5042°W)
Time: 15:40:05
(UTC+00:00)

RS-44 - Pass Details

Date: 25 April 2024
Orbit: 1174 x 1511 km, 82.5° (Epoch: 20 May)

Event Time Altitude Azimuth Distance (km) Brightness Sun altitude
Rises 00:42:55 0° 204° (SSW) 4,627 ? -10.9°
Reaches altitude 10° 00:45:57 10° 208° (SSW) 3,632 ? -11.4°
Maximum altitude 00:54:31 56° 285° (WNW) 1,680 ? -12.6°
Drops below altitude 10° 01:02:39 10° 3° (N) 3,447 ? -13.7°
Sets 01:05:28 0° 8° (N) 4,378 ? -14.0°
